Location: Ash Shall?l al Awwal
(24.0167°N, 32.8667°E)
Time: 19:47:14
(UTC+00:00)

Meteor 2-12 Rocket - Pass Details

Date: 02 March 2021
Orbit: 936 x 956 km, 82.5° (Epoch: 09 April)

Event Time Altitude Azimuth Distance (km) Brightness Sun altitude
Rises 16:42:08 0° 184° (S) 3,579 7.5 -12.3°
Reaches altitude 10° 16:44:36 10° 184° (S) 2,638 6.9 -12.8°
Maximum altitude 16:50:38 90° 278° (W) 942 4.4 -14.2°
Drops below altitude 10° 16:56:43 10° 5° (N) 2,656 6.7 -15.6°
Sets 16:59:12 0° 6° (N) 3,606 7.4 -16.2°
